Location: Bay Ridge
(40.6340°N, 74.0146°W)
Time: 22:56:03
(UTC+00:00)

Lacrosse 4 Rocket - Pass Details

Date: 15 November 2019
Orbit: 543 x 616 km, 68.0° (Epoch: 05 December)

Event Time Altitude Azimuth Distance (km) Brightness Sun altitude
Rises 00:42:02 0° 258° (WSW) 2,716 5.8 -34.7°
Reaches altitude 10° 00:45:32 10° 290° (WNW) 1,818 4.7 -35.4°
Enters shadow 00:46:26 12° 302° (WNW) 1,713 4.4 -35.5°
